This is the latest recevied weather packets stored in our database for station/object VE3MNX. If no packets are shown the sender has not sent any weather packets the latest 10 day(s).
| Time | Temp. | Humidity | Pressure | Rain* | Wind** | Luminosity | Snow |
|---|---|---|---|---|---|---|---|
| 1778093598 | 11.11° C | 63% | 1010.8 hPa | 0 mm | - | - | - |
| 1778092700 | 10.56° C | 66% | 1011.2 hPa | 0 mm | - | - | - |
| 1778091800 | 11.67° C | 64% | 1010.8 hPa | 0 mm | - | - | - |
| 1778090897 | 10.56° C | 62% | 1011.1 hPa | 0 mm | - | - | - |
| 1778089998 | 11.11° C | 64% | 1011 hPa | 0 mm | - | - | - |
| 1778089097 | 11.11° C | 67% | 1010.9 hPa | 0 mm | - | - | - |
| 1778088200 | 11.11° C | 70% | 1010.8 hPa | 0 mm | - | - | - |
| 1778087298 | 10.56° C | 67% | 1010.8 hPa | 0 mm | - | - | - |
| 1778086397 | 10° C | 71% | 1010.8 hPa | 0 mm | - | - | - |
| 1778085497 | 10.56° C | 67% | 1010.8 hPa | 0 mm | - | - | - |
| 1778084598 | 9.44° C | 71% | 1011.2 hPa | 0 mm | - | - | - |
| 1778083699 | 9.44° C | 71% | 1010.8 hPa | 0 mm | - | - | - |
| 1778082800 | 10° C | 72% | 1010.8 hPa | 0 mm | - | - | - |
| 1778081899 | 9.44° C | 75% | 1010.5 hPa | 0 mm | - | - | - |
| 1778080998 | 8.89° C | 76% | 1010.5 hPa | 0 mm | - | - | - |
| 1778080098 | 9.44° C | 76% | 1010.5 hPa | 0 mm | - | - | - |
| 1778079198 | 8.33° C | 78% | 1010.2 hPa | 0 mm | - | - | - |
| 1778078297 | 7.78° C | 78% | 1010.2 hPa | 0 mm | - | - | - |
| 1778077401 | 8.33° C | 81% | 1010.2 hPa | 0 mm | - | - | - |
| 1778076498 | 7.78° C | 79% | 1010.2 hPa | 0 mm | - | - | - |
| 1778075599 | 7.22° C | 82% | 1009.8 hPa | 0 mm | - | - | - |
| 1778074697 | 6.67° C | 83% | 1009.7 hPa | 0 mm | - | - | - |
| 1778073799 | 6.67° C | 86% | 1009.5 hPa | 0 mm | - | - | - |
| 1778072897 | 6.11° C | 86% | 1009.5 hPa | 0 mm | - | - | - |
| 1778071998 | 5.56° C | 89% | 1009.5 hPa | 0 mm | - | - | - |
* Rain latest hour (hover to see other rain measurements)
** Current wind speed in m/s (hover to see current wind gust speed)